This demonstration page uses our WeatherBlox Daily Observations layout. Learn more.

36.17497, -115.13722

Hourly Observations for July 14, 2016

Temp ( °F °C ) Dew Point ( °F °C ) Humidity (%) Winds ( mph kmh ) Pressure ( in mb ) Visibility ( mi km ) Precip ( " mm )
12:53 am 00:53 Clear 87 30.6 35 1.7 16 16 W 3 6 29.87 1012 10 16.0934 0 0
1:53 am 01:53 Clear 84 28.9 35 1.7 17 17 WNW 5 7 29.88 1012 10 16.0934 0 0
2:53 am 02:53 Clear 80 26.7 33 0.6 18 18 N 5 7 29.88 1012 10 16.0934 0 0
3:53 am 03:53 Clear 79 26.1 32 0 18 18 NNW 5 7 29.89 1012 10 16.0934 0 0
4:53 am 04:53 Clear 77 25 33 0.6 20 20 Calm 29.9 1013 10 16.0934 0 0
5:53 am 05:53 Sunny 76 24.4 36 2.2 23 23 NW 5 7 29.91 1013 10 16.0934 0 0
6:53 am 06:53 Sunny 80 26.7 36 2.2 20 20 NNW 5 7 29.94 1014 10 16.0934 0 0
7:53 am 07:53 Sunny 86 30 36 2.2 17 17 N 3 6 29.95 1014 10 16.0934 0 0
8:53 am 08:53 Sunny 91 32.8 32 0 12 12 ENE 5 7 29.96 1015 10 16.0934 0 0
9:53 am 09:53 Sunny 93 33.9 29 -1.7 10 10 SE 7 11 29.96 1015 10 16.0934 0 0
10:53 am 10:53 Sunny 96 35.6 32 0 10 10 SE 8 13 29.95 1014 10 16.0934 0 0
11:53 am 11:53 Sunny 100 37.8 35 1.7 10 10 VRB 7 11 29.94 1014 10 16.0934 0 0
12:53 pm 12:53 Sunny 102 38.9 34 1.1 9 9 VRB 6 9 29.91 1013 10 16.0934 0 0
1:53 pm 13:53 Sunny 104 40 33 0.6 8 8 undefined N/A 29.88 1012 10 16.0934 0 0
2:53 pm 14:53 Sunny 107 41.7 32 0 7 7 SSE 13 20 29.86 1011 10 16.0934 0 0
3:53 pm 15:53 Sunny 106 41.1 34 1.1 8 8 SE 15 24 29.83 1010 10 16.0934 0 0
4:53 pm 16:53 Sunny 107 41.7 36 2.2 9 9 SE 16 26 29.8 1009 10 16.0934 0 0
5:53 pm 17:53 Sunny 106 41.1 36 2.2 9 9 ESE 15 24 29.79 1009 10 16.0934 0 0
6:53 pm 18:53 Sunny 105 40.6 34 1.1 8 8 SSE 18 30 29.78 1008 10 16.0934 0 0
7:53 pm 19:53 Sunny 102 38.9 32 0 9 9 SSE 9 15 29.78 1009 10 16.0934 0 0
8:53 pm 20:53 Clear 100 37.8 27 -2.8 7 7 SSW 3 6 29.79 1009 10 16.0934 0 0
9:53 pm 21:53 Clear 97 36.1 25 -3.9 7 7 SSW 7 11 29.8 1009 10 16.0934 0 0
10:53 pm 22:53 Clear 93 33.9 27 -2.8 9 9 VRB 5 7 29.8 1009 10 16.0934 0 0
11:53 pm 23:53 Clear 91 32.8 24 -4.4 9 9 SW 8 13 29.81 1009 10 16.0934 0 0

Powered by AerisWeather